| time (UTC) | temp F | wind direction | speed MPH | gust MPH | rain 1hr in | rain 24hr in | rain mn in | humidity % | barometer mb |
| 20260905060657 | 54 | 322 | 0.0 | 0.0 | 0.00 | 0.09 | 0.09 | 99 | 1018.1 |
| 20260905060154 | 54 | 322 | 0.0 | 0.0 | 0.00 | 0.09 | 0.09 | 99 | 1017.9 |
| 20260905055652 | 54 | 322 | 0.0 | 0.0 | 0.00 | 0.09 | 0.09 | 99 | 1017.9 |
| 20260905055148 | 54 | 322 | 0.0 | 0.0 | 0.00 | 0.09 | 0.09 | 99 | 1017.9 |
| 20260905054643 | 55 | 322 | 0.0 | 0.0 | 0.00 | 0.09 | 0.09 | 99 | 1017.9 |
| 20260905054139 | 55 | 322 | 0.0 | 0.0 | 0.00 | 0.09 | 0.09 | 99 | 1018.1 |
| 20260905053638 | 55 | 322 | 0.0 | 0.0 | 0.00 | 0.09 | 0.09 | 99 | 1018.1 |
| 20260905053134 | 55 | 322 | 0.0 | 0.0 | 0.00 | 0.09 | 0.09 | 99 | 1018.2 |
| 20260905052633 | 55 | 322 | 0.0 | 0.0 | 0.00 | 0.09 | 0.09 | 99 | 1018.0 |
| 20260905052128 | 55 | 322 | 0.0 | 0.0 | 0.00 | 0.09 | 0.09 | 99 | 1018.0 |
| 20260905051623 | 55 | 322 | 0.0 | 0.0 | 0.00 | 0.09 | 0.09 | 99 | 1018.2 |
| 20260905051120 | 55 | 318 | 0.0 | 0.0 | 0.00 | 0.09 | 0.09 | 99 | 1018.0 |
| 20260905050615 | 55 | 319 | 0.0 | 0.0 | 0.00 | 0.09 | 0.09 | 99 | 1018.0 |
| 20260905050107 | 55 | 305 | 0.0 | 0.0 | 0.00 | 0.09 | 0.09 | 99 | 1018.0 |
| 20260905045606 | 55 | 317 | 0.0 | 0.0 | 0.00 | 0.09 | 0.09 | 99 | 1018.3 |
| 20260905045102 | 55 | 254 | 1.0 | 1.0 | 0.00 | 0.09 | 0.09 | 99 | 1018.2 |
| 20260905044602 | 55 | 347 | 0.0 | 0.0 | 0.00 | 0.09 | 0.09 | 99 | 1018.1 |
| 20260905044056 | 55 | 336 | 0.0 | 0.0 | 0.00 | 0.09 | 0.09 | 99 | 1017.9 |
| 20260905043555 | 55 | 329 | 0.0 | 0.0 | 0.00 | 0.09 | 0.09 | 99 | 1018.3 |
| 20260905043051 | 55 | 302 | 0.0 | 0.0 | 0.00 | 0.09 | 0.09 | 99 | 1018.1 |
| 20260905042549 | 55 | 330 | 0.0 | 0.0 | 0.00 | 0.09 | 0.09 | 99 | 1018.0 |
| 20260905042045 | 55 | 331 | 0.0 | 0.0 | 0.00 | 0.09 | 0.09 | 99 | 1017.9 |
| 20260905041540 | 55 | 331 | 0.0 | 0.0 | 0.00 | 0.09 | 0.09 | 99 | 1017.9 |
| 20260905041036 | 55 | 331 | 0.0 | 0.0 | 0.00 | 0.09 | 0.09 | 99 | 1018.0 |
| 20260905040535 | 55 | 330 | 0.0 | 0.0 | 0.00 | 0.09 | 0.09 | 99 | 1017.8 |
| 20260905040034 | 55 | 331 | 0.0 | 0.0 | 0.00 | 0.09 | 0.09 | 99 | 1017.8 |
| 20260905035529 | 55 | 331 | 0.0 | 0.0 | 0.00 | 0.09 | 0.09 | 99 | 1017.8 |
| 20260905035026 | 55 | 330 | 0.0 | 0.0 | 0.00 | 0.09 | 0.09 | 99 | 1017.7 |
| 20260905034522 | 55 | 352 | 0.0 | 0.0 | 0.00 | 0.09 | 0.09 | 99 | 1017.8 |
| 20260905034021 | 56 | 352 | 0.0 | 0.0 | 0.00 | 0.09 | 0.09 | 99 | 1017.7 |
| 20260905033521 | 56 | 352 | 0.0 | 0.0 | 0.00 | 0.09 | 0.09 | 99 | 1017.8 |
| 20260905033017 | 56 | 352 | 0.0 | 0.0 | 0.00 | 0.09 | 0.09 | 99 | 1017.6 |
| 20260905032512 | 56 | 2 | 0.0 | 0.0 | 0.00 | 0.09 | 0.09 | 99 | 1017.5 |
| 20260905032007 | 56 | 349 | 0.0 | 0.0 | 0.00 | 0.09 | 0.09 | 99 | 1017.4 |
| 20260905031503 | 57 | 353 | 0.0 | 0.0 | 0.00 | 0.09 | 0.09 | 99 | 1017.3 |
| 20260905030957 | 57 | 329 | 0.0 | 0.0 | 0.00 | 0.09 | 0.09 | 99 | 1017.2 |
| 20260905030453 | 57 | 329 | 0.0 | 0.0 | 0.00 | 0.09 | 0.09 | 99 | 1017.2 |
| 20260905025951 | 57 | 329 | 0.0 | 0.0 | 0.00 | 0.09 | 0.09 | 99 | 1017.2 |
| 20260905025447 | 57 | 330 | 0.0 | 0.0 | 0.00 | 0.09 | 0.09 | 99 | 1017.1 |
| 20260905024943 | 57 | 329 | 0.0 | 0.0 | 0.00 | 0.09 | 0.09 | 99 | 1017.1 |
| 20260905024443 | 58 | 353 | 0.0 | 0.0 | 0.00 | 0.09 | 0.09 | 99 | 1016.9 |
| 20260905023939 | 58 | 336 | 0.0 | 0.0 | 0.00 | 0.09 | 0.09 | 99 | 1016.7 |
| 20260905023434 | 58 | 344 | 0.0 | 0.0 | 0.00 | 0.09 | 0.09 | 99 | 1016.8 |
| 20260905022933 | 59 | 6 | 0.0 | 0.0 | 0.00 | 0.09 | 0.09 | 99 | 1016.7 |
| 20260905022428 | 59 | 6 | 0.0 | 0.0 | 0.00 | 0.09 | 0.09 | 99 | 1016.8 |
| 20260905021924 | 59 | 6 | 0.0 | 0.0 | 0.00 | 0.09 | 0.09 | 99 | 1016.8 |
| 20260905021424 | 59 | 6 | 0.0 | 0.0 | 0.00 | 0.09 | 0.09 | 99 | 1016.8 |
| 20260905020919 | 59 | 359 | 0.0 | 0.0 | 0.00 | 0.09 | 0.09 | 99 | 1016.6 |
| 20260905020418 | 60 | 340 | 0.0 | 0.0 | 0.00 | 0.09 | 0.09 | 99 | 1016.8 |
| 20260905015913 | 60 | 342 | 0.0 | 0.0 | 0.00 | 0.09 | 0.09 | 99 | 1016.7 |
| 20260905015411 | 61 | 340 | 0.0 | 0.0 | 0.00 | 0.09 | 0.09 | 99 | 1016.6 |
| 20260905014910 | 61 | 337 | 0.0 | 0.0 | 0.00 | 0.09 | 0.09 | 99 | 1016.7 |
| 20260905014406 | 61 | 337 | 0.0 | 0.0 | 0.00 | 0.09 | 0.09 | 99 | 1016.7 |
| 20260905013901 | 61 | 338 | 0.0 | 0.0 | 0.00 | 0.09 | 0.09 | 98 | 1016.6 |
| 20260905013357 | 62 | 348 | 0.0 | 0.0 | 0.00 | 0.09 | 0.09 | 98 | 1016.6 |
| 20260905012852 | 62 | 343 | 0.0 | 0.0 | 0.00 | 0.09 | 0.09 | 98 | 1016.5 |
| 20260905012347 | 62 | 343 | 0.0 | 0.0 | 0.00 | 0.09 | 0.09 | 98 | 1016.6 |
| 20260905011844 | 63 | 327 | 0.0 | 0.0 | 0.00 | 0.09 | 0.09 | 97 | 1016.4 |
| 20260905011339 | 63 | 338 | 0.0 | 0.0 | 0.00 | 0.09 | 0.09 | 96 | 1016.4 |
| 20260905010835 | 63 | 338 | 0.0 | 0.0 | 0.00 | 0.09 | 0.09 | 96 | 1016.2 |
| 20260905010330 | 63 | 339 | 0.0 | 0.0 | 0.00 | 0.09 | 0.09 | 94 | 1016.2 |
| 20260905005826 | 63 | 349 | 0.0 | 0.0 | 0.00 | 0.09 | 0.09 | 93 | 1016.3 |
| 20260905005321 | 63 | 348 | 0.0 | 0.0 | 0.00 | 0.09 | 0.09 | 95 | 1016.3 |
| 20260905004816 | 64 | 330 | 0.0 | 0.0 | 0.00 | 0.09 | 0.09 | 95 | 1016.2 |
| 20260905004311 | 64 | 351 | 0.0 | 0.0 | 0.00 | 0.09 | 0.09 | 92 | 1016.1 |
| 20260905003806 | 64 | 338 | 0.0 | 0.0 | 0.00 | 0.09 | 0.09 | 92 | 1016.0 |
| 20260905003302 | 64 | 335 | 1.0 | 1.0 | 0.00 | 0.09 | 0.09 | 89 | 1016.2 |
| 20260905002757 | 65 | 329 | 0.0 | 0.0 | 0.00 | 0.09 | 0.09 | 90 | 1015.8 |
| 20260905002257 | 65 | 334 | 2.0 | 2.0 | 0.00 | 0.09 | 0.09 | 87 | 1016.1 |
| 20260905001752 | 64 | 309 | 0.0 | 0.0 | 0.00 | 0.09 | 0.09 | 94 | 1016.0 |
| 20260905001252 | 64 | 324 | 0.0 | 0.0 | 0.00 | 0.09 | 0.09 | 97 | 1016.0 |
| 20260905000747 | 63 | 339 | 0.0 | 0.0 | 0.00 | 0.09 | 0.09 | 97 | 1015.9 |
| 20260905000243 | 63 | 353 | 1.0 | 1.0 | 0.00 | 0.09 | 0.09 | 97 | 1016.1 |
| 20260904235738 | 62 | 356 | 0.0 | 0.0 | 0.00 | 0.09 | 0.09 | 97 | 1016.2 |
| 20260904235232 | 62 | 351 | 1.0 | 1.0 | 0.00 | 0.09 | 0.09 | 98 | 1016.0 |
| 20260904234727 | 63 | 355 | 1.0 | 1.0 | 0.00 | 0.09 | 0.09 | 99 | 1015.9 |
| 20260904234222 | 63 | 350 | 0.0 | 0.0 | 0.00 | 0.09 | 0.09 | 99 | 1015.9 |
| 20260904233718 | 62 | 356 | 0.0 | 1.0 | 0.00 | 0.09 | 0.09 | 99 | 1015.9 |
| 20260904233214 | 62 | 354 | 1.0 | 1.0 | 0.00 | 0.09 | 0.09 | 99 | 1015.8 |
| 20260904232711 | 62 | 354 | 0.0 | 1.0 | 0.00 | 0.09 | 0.09 | 99 | 1015.9 |
| 20260904232207 | 63 | 1 | 0.0 | 0.0 | 0.00 | 0.09 | 0.09 | 99 | 1016.0 |
| 20260904231702 | 63 | 356 | 1.0 | 2.0 | 0.00 | 0.09 | 0.09 | 99 | 1015.8 |
| 20260904231157 | 63 | 353 | 0.0 | 0.0 | 0.00 | 0.09 | 0.09 | 99 | 1015.8 |
| 20260904230656 | 63 | 8 | 1.0 | 1.0 | 0.00 | 0.09 | 0.09 | 99 | 1015.7 |
| 20260904230151 | 63 | 350 | 0.0 | 0.0 | 0.00 | 0.09 | 0.09 | 99 | 1015.7 |
| 20260904225650 | 63 | 350 | 0.0 | 0.0 | 0.00 | 0.09 | 0.09 | 99 | 1015.8 |
| 20260904225145 | 63 | 350 | 0.0 | 0.0 | 0.00 | 0.09 | 0.09 | 98 | 1016.0 |
| 20260904224639 | 63 | 335 | 0.0 | 1.0 | 0.00 | 0.09 | 0.09 | 98 | 1015.9 |
| 20260904224139 | 63 | 316 | 0.0 | 0.0 | 0.00 | 0.09 | 0.09 | 98 | 1015.9 |
| 20260904223633 | 63 | 316 | 0.0 | 0.0 | 0.00 | 0.09 | 0.09 | 99 | 1015.7 |
| 20260904223128 | 63 | 316 | 0.0 | 0.0 | 0.00 | 0.09 | 0.09 | 99 | 1015.5 |
| 20260904222625 | 62 | 315 | 0.0 | 0.0 | 0.00 | 0.09 | 0.09 | 99 | 1015.7 |
| 20260904222120 | 62 | 327 | 0.0 | 0.0 | 0.00 | 0.09 | 0.09 | 99 | 1015.7 |
| 20260904221620 | 62 | 346 | 0.0 | 0.0 | 0.00 | 0.09 | 0.09 | 99 | 1015.5 |
| 20260904221119 | 61 | 344 | 0.0 | 0.0 | 0.07 | 0.09 | 0.09 | 98 | 1015.7 |
| 20260904220614 | 61 | 308 | 0.0 | 0.0 | 0.24 | 0.09 | 0.09 | 98 | 1015.6 |
| 20260904220110 | 61 | 338 | 0.0 | 0.0 | 0.45 | 0.07 | 0.07 | 96 | 1015.8 |
| 20260904215610 | 62 | 351 | 1.0 | 1.0 | 0.28 | 0.05 | 0.05 | 93 | 1015.8 |
| 20260904215106 | 67 | 46 | 3.0 | 3.0 | 0.00 | 0.00 | 0.00 | 77 | 1015.6 |
| 20260904214601 | 68 | 148 | 0.0 | 1.0 | 0.00 | 0.00 | 0.00 | 68 | 1015.5 |
| 20260904214056 | 69 | 301 | 0.0 | 1.0 | 0.00 | 0.00 | 0.00 | 65 | 1015.4 |
| 20260904213554 | 69 | 206 | 0.0 | 1.0 | 0.00 | 0.00 | 0.00 | 67 | 1015.2 |
| 20260904213051 | 71 | 311 | 1.0 | 1.0 | 0.00 | 0.00 | 0.00 | 62 | 1015.3 |
| 20260904212550 | 72 | 285 | 3.0 | 3.0 | 0.00 | 0.00 | 0.00 | 63 | 1015.1 |
| 20260904212046 | 70 | 231 | 3.0 | 5.0 | 0.00 | 0.00 | 0.00 | 62 | 1015.2 |
| 20260904211545 | 69 | 356 | 0.0 | 0.0 | 0.00 | 0.00 | 0.00 | 63 | 1015.4 |
| 20260904211041 | 70 | 268 | 3.0 | 5.0 | 0.00 | 0.00 | 0.00 | 64 | 1015.1 |
| 20260904210540 | 70 | 352 | 0.0 | 0.0 | 0.00 | 0.00 | 0.00 | 66 | 1015.3 |
| 20260904210036 | 70 | 355 | 1.0 | 2.0 | 0.00 | 0.00 | 0.00 | 65 | 1015.3 |
| 20260904205531 | 71 | 136 | 0.0 | 1.0 | 0.00 | 0.00 | 0.00 | 65 | 1014.9 |
| 20260904205028 | 71 | 303 | 1.0 | 2.0 | 0.00 | 0.00 | 0.00 | 64 | 1015.2 |
| 20260904204524 | 71 | 343 | 0.0 | 1.0 | 0.00 | 0.00 | 0.00 | 67 | 1014.9 |
| 20260904204019 | 72 | 14 | 2.0 | 2.0 | 0.00 | 0.00 | 0.00 | 65 | 1015.1 |
| 20260904203515 | 70 | 269 | 3.0 | 5.0 | 0.00 | 0.00 | 0.00 | 65 | 1014.9 |
| 20260904203011 | 71 | 78 | 2.0 | 3.0 | 0.00 | 0.00 | 0.00 | 65 | 1014.9 |
| 20260904202507 | 71 | 239 | 1.0 | 1.0 | 0.00 | 0.00 | 0.00 | 67 | 1014.8 |
| 20260904202003 | 70 | 70 | 1.0 | 2.0 | 0.00 | 0.00 | 0.00 | 70 | 1014.9 |
| 20260904201458 | 70 | 68 | 1.0 | 1.0 | 0.00 | 0.00 | 0.00 | 67 | 1015.0 |
| 20260904200954 | 70 | 208 | 3.0 | 3.0 | 0.00 | 0.00 | 0.00 | 68 | 1015.0 |
| 20260904200451 | 70 | 335 | 3.0 | 5.0 | 0.00 | 0.00 | 0.00 | 67 | 1014.6 |
| 20260904195947 | 70 | 4 | 2.0 | 2.0 | 0.00 | 0.00 | 0.00 | 69 | 1014.9 |
| 20260904195445 | 69 | 83 | 4.0 | 6.0 | 0.00 | 0.00 | 0.00 | 67 | 1015.0 |
| 20260904194944 | 70 | 221 | 3.0 | 3.0 | 0.00 | 0.00 | 0.00 | 67 | 1015.3 |
| 20260904194439 | 69 | 147 | 2.0 | 2.0 | 0.00 | 0.00 | 0.00 | 71 | 1015.2 |
| 20260904193934 | 69 | 0 | 1.0 | 2.0 | 0.00 | 0.00 | 0.00 | 68 | 1015.0 |
| 20260904193430 | 69 | 350 | 1.0 | 2.0 | 0.00 | 0.00 | 0.00 | 69 | 1015.2 |
| 20260904192925 | 69 | 0 | 0.0 | 1.0 | 0.00 | 0.00 | 0.00 | 69 | 1015.3 |
| 20260904192420 | 69 | 218 | 1.0 | 1.0 | 0.00 | 0.00 | 0.00 | 68 | 1015.1 |
| 20260904191916 | 69 | 17 | 2.0 | 3.0 | 0.00 | 0.00 | 0.00 | 68 | 1015.2 |
| 20260904191413 | 66 | 152 | 0.0 | 0.0 | 0.00 | 0.00 | 0.00 | 71 | 1015.2 |
| 20260904190909 | 66 | 246 | 1.0 | 1.0 | 0.00 | 0.00 | 0.00 | 69 | 1015.4 |
| 20260904190404 | 65 | 349 | 1.0 | 1.0 | 0.00 | 0.00 | 0.00 | 71 | 1015.3 |
| 20260904185901 | 65 | 334 | 0.0 | 0.0 | 0.00 | 0.00 | 0.00 | 74 | 1015.4 |
| 20260904185356 | 64 | 332 | 0.0 | 0.0 | 0.00 | 0.00 | 0.00 | 74 | 1015.4 |
| 20260904184855 | 64 | 318 | 0.0 | 1.0 | 0.00 | 0.00 | 0.00 | 74 | 1015.4 |
| 20260904184350 | 64 | 107 | 0.0 | 0.0 | 0.00 | 0.00 | 0.00 | 74 | 1015.4 |
| 20260904183846 | 64 | 314 | 0.0 | 0.0 | 0.00 | 0.00 | 0.00 | 74 | 1015.4 |
| 20260904183341 | 64 | 335 | 0.0 | 0.0 | 0.00 | 0.00 | 0.00 | 73 | 1015.3 |
| 20260904182836 | 63 | 316 | 0.0 | 1.0 | 0.00 | 0.00 | 0.00 | 76 | 1015.5 |
| 20260904182331 | 63 | 306 | 1.0 | 1.0 | 0.00 | 0.00 | 0.00 | 74 | 1015.3 |
| 20260904181826 | 64 | 317 | 0.0 | 0.0 | 0.00 | 0.00 | 0.00 | 75 | 1015.2 |
| 20260904181326 | 64 | 332 | 0.0 | 0.0 | 0.00 | 0.00 | 0.00 | 75 | 1015.4 |
| 20260904180822 | 65 | 193 | 2.0 | 2.0 | 0.00 | 0.00 | 0.00 | 73 | 1015.3 |
| 20260904180317 | 65 | 100 | 1.0 | 1.0 | 0.00 | 0.00 | 0.00 | 70 | 1015.4 |
| 20260904175816 | 63 | 207 | 0.0 | 0.0 | 0.00 | 0.00 | 0.00 | 74 | 1015.5 |
| 20260904175314 | 63 | 308 | 0.0 | 0.0 | 0.00 | 0.00 | 0.00 | 78 | 1015.6 |
| 20260904174809 | 61 | 320 | 0.0 | 0.0 | 0.00 | 0.00 | 0.00 | 82 | 1015.7 |
| 20260904174305 | 61 | 319 | 0.0 | 0.0 | 0.00 | 0.00 | 0.00 | 80 | 1015.8 |
| 20260904173801 | 61 | 224 | 0.0 | 1.0 | 0.00 | 0.00 | 0.00 | 80 | 1015.8 |
| 20260904173256 | 61 | 321 | 0.0 | 0.0 | 0.00 | 0.00 | 0.00 | 81 | 1015.7 |
| 20260904172752 | 61 | 5 | 0.0 | 0.0 | 0.00 | 0.00 | 0.00 | 81 | 1015.7 |
| 20260904172250 | 60 | 308 | 0.0 | 0.0 | 0.00 | 0.00 | 0.00 | 83 | 1015.7 |
| 20260904171746 | 60 | 315 | 0.0 | 0.0 | 0.00 | 0.00 | 0.00 | 83 | 1015.7 |
| 20260904171241 | 60 | 294 | 0.0 | 1.0 | 0.00 | 0.00 | 0.00 | 84 | 1015.6 |
| 20260904170738 | 59 | 334 | 0.0 | 0.0 | 0.00 | 0.00 | 0.00 | 86 | 1015.5 |
| 20260904170233 | 59 | 317 | 0.0 | 0.0 | 0.00 | 0.00 | 0.00 | 86 | 1015.8 |
| 20260904165732 | 60 | 339 | 0.0 | 0.0 | 0.00 | 0.00 | 0.00 | 88 | 1015.6 |
| 20260904165227 | 60 | 339 | 0.0 | 0.0 | 0.00 | 0.00 | 0.00 | 88 | 1015.9 |
| 20260904164726 | 59 | 353 | 0.0 | 0.0 | 0.00 | 0.00 | 0.00 | 91 | 1015.7 |
| 20260904164221 | 59 | 353 | 0.0 | 0.0 | 0.00 | 0.00 | 0.00 | 91 | 1015.9 |
| 20260904163718 | 0 | 0.0 | 0.0 | 0.00 | 0.00 | 0.00 | 1015.7 | ||
| 20260904163213 | 0 | 0.0 | 0.0 | 0.00 | 0.00 | 0.00 | 1015.5 | ||
| 20260904162712 | 59 | 283 | 0.0 | 0.0 | 0.00 | 0.00 | 0.00 | 89 | 1015.8 |
| 20260904162207 | 59 | 283 | 0.0 | 0.0 | 0.00 | 0.00 | 0.00 | 89 | 1015.7 |
| 20260904161703 | 60 | 198 | 2.0 | 2.0 | 0.00 | 0.00 | 0.00 | 90 | 1015.6 |
| 20260904161157 | 59 | 133 | 1.0 | 1.0 | 0.00 | 0.00 | 0.00 | 90 | 1015.5 |
| 20260904160653 | 57 | 42 | 1.0 | 1.0 | 0.00 | 0.00 | 0.00 | 93 | 1015.6 |
| 20260904160143 | 0 | 0.0 | 0.0 | 0.00 | 0.00 | 0.00 | 1015.8 | ||
| 20260904155638 | 54 | 337 | 0.0 | 1.0 | 0.00 | 0.00 | 0.00 | 98 | 1015.7 |
| 20260904155132 | 54 | 337 | 0.0 | 1.0 | 0.00 | 0.00 | 0.00 | 98 | 1015.7 |
| 20260904154631 | 53 | 252 | 2.0 | 3.0 | 0.00 | 0.00 | 0.00 | 98 | 1016.1 |
| 20260904154130 | 53 | 214 | 2.0 | 2.0 | 0.00 | 0.00 | 0.00 | 98 | 1015.8 |
| 20260904153625 | 53 | 135 | 2.0 | 2.0 | 0.00 | 0.00 | 0.00 | 98 | 1015.9 |
| 20260904153121 | 53 | 296 | 1.0 | 1.0 | 0.00 | 0.00 | 0.00 | 98 | 1015.7 |
| 20260904152617 | 53 | 196 | 1.0 | 1.0 | 0.00 | 0.00 | 0.00 | 99 | 1015.5 |
| 20260904152113 | 53 | 322 | 0.0 | 0.0 | 0.00 | 0.00 | 0.00 | 99 | 1015.6 |
| 20260904151608 | 52 | 342 | 0.0 | 0.0 | 0.00 | 0.00 | 0.00 | 99 | 1015.4 |
| 20260904151106 | 52 | 349 | 0.0 | 0.0 | 0.00 | 0.00 | 0.00 | 99 | 1015.6 |
| 20260904150601 | 52 | 186 | 2.0 | 3.0 | 0.00 | 0.00 | 0.00 | 99 | 1015.5 |
| 20260904150056 | 52 | 272 | 0.0 | 1.0 | 0.00 | 0.00 | 0.00 | 99 | 1015.4 |
| 20260904145555 | 52 | 338 | 0.0 | 0.0 | 0.00 | 0.00 | 0.00 | 99 | 1015.4 |
| 20260904145051 | 52 | 30 | 1.0 | 1.0 | 0.00 | 0.00 | 0.00 | 99 | 1015.4 |
| 20260904144547 | 51 | 189 | 2.0 | 2.0 | 0.00 | 0.00 | 0.00 | 99 | 1015.4 |
| 20260904144042 | 51 | 314 | 0.0 | 0.0 | 0.00 | 0.00 | 0.00 | 99 | 1015.2 |
| 20260904143538 | 51 | 359 | 0.0 | 0.0 | 0.00 | 0.00 | 0.00 | 99 | 1015.1 |
| 20260904143035 | 51 | 206 | 3.0 | 3.0 | 0.00 | 0.00 | 0.00 | 99 | 1015.0 |
| 20260904142531 | 51 | 202 | 2.0 | 2.0 | 0.00 | 0.00 | 0.00 | 99 | 1015.1 |
| 20260904142026 | 51 | 341 | 0.0 | 0.0 | 0.00 | 0.00 | 0.00 | 99 | 1015.0 |
| 20260904141521 | 51 | 342 | 0.0 | 0.0 | 0.00 | 0.00 | 0.00 | 99 | 1014.7 |
| 20260904141017 | 51 | 297 | 0.0 | 0.0 | 0.00 | 0.00 | 0.00 | 99 | 1014.9 |
| 20260904140517 | 51 | 317 | 0.0 | 0.0 | 0.00 | 0.00 | 0.00 | 99 | 1014.7 |
| 20260904140016 | 51 | 314 | 0.0 | 0.0 | 0.00 | 0.00 | 0.00 | 99 | 1014.8 |
| 20260904135516 | 51 | 319 | 0.0 | 0.0 | 0.00 | 0.00 | 0.00 | 99 | 1014.7 |
| 20260904135012 | 51 | 302 | 0.0 | 0.0 | 0.00 | 0.00 | 0.00 | 99 | 1014.6 |
| 20260904134507 | 51 | 322 | 0.0 | 0.0 | 0.00 | 0.00 | 0.00 | 99 | 1014.4 |
| 20260904134001 | 51 | 328 | 0.0 | 0.0 | 0.00 | 0.00 | 0.00 | 99 | 1014.5 |
| 20260904133455 | 51 | 343 | 0.0 | 0.0 | 0.00 | 0.00 | 0.00 | 99 | 1014.5 |
| 20260904132951 | 51 | 329 | 0.0 | 0.0 | 0.00 | 0.00 | 0.00 | 99 | 1014.4 |
| 20260904132452 | 50 | 346 | 0.0 | 0.0 | 0.00 | 0.00 | 0.00 | 99 | 1014.3 |
| 20260904131946 | 50 | 335 | 0.0 | 0.0 | 0.00 | 0.00 | 0.00 | 99 | 1014.3 |
| 20260904131441 | 50 | 335 | 0.0 | 0.0 | 0.00 | 0.00 | 0.00 | 99 | 1014.3 |
| 20260904130937 | 50 | 301 | 0.0 | 0.0 | 0.00 | 0.00 | 0.00 | 99 | 1014.3 |
| 20260904130436 | 50 | 335 | 0.0 | 0.0 | 0.00 | 0.00 | 0.00 | 99 | 1014.3 |
| 20260904125931 | 50 | 324 | 0.0 | 0.0 | 0.00 | 0.00 | 0.00 | 99 | 1014.0 |
| 20260904125427 | 50 | 324 | 0.0 | 0.0 | 0.00 | 0.00 | 0.00 | 99 | 1014.2 |
| 20260904124927 | 50 | 322 | 0.0 | 0.0 | 0.00 | 0.00 | 0.00 | 99 | 1014.1 |
| 20260904124423 | 50 | 317 | 0.0 | 0.0 | 0.00 | 0.00 | 0.00 | 99 | 1014.2 |
| 20260904123919 | 50 | 336 | 0.0 | 0.0 | 0.00 | 0.00 | 0.00 | 99 | 1013.9 |
| 20260904123419 | 50 | 322 | 0.0 | 0.0 | 0.00 | 0.00 | 0.00 | 99 | 1014.2 |
| 20260904122914 | 50 | 324 | 0.0 | 0.0 | 0.00 | 0.00 | 0.00 | 99 | 1014.2 |
| 20260904122413 | 50 | 299 | 0.0 | 0.0 | 0.00 | 0.00 | 0.00 | 99 | 1013.9 |
| 20260904121908 | 50 | 335 | 0.0 | 0.0 | 0.00 | 0.00 | 0.00 | 99 | 1014.0 |
| 20260904121405 | 50 | 306 | 0.0 | 0.0 | 0.00 | 0.00 | 0.00 | 99 | 1013.9 |
| 20260904120901 | 50 | 299 | 0.0 | 0.0 | 0.00 | 0.00 | 0.00 | 99 | 1014.0 |
| 20260904120357 | 50 | 336 | 0.0 | 0.0 | 0.00 | 0.00 | 0.00 | 99 | 1013.9 |
| 20260904115851 | 50 | 335 | 0.0 | 0.0 | 0.00 | 0.00 | 0.00 | 99 | 1013.8 |
| 20260904115347 | 49 | 339 | 0.0 | 0.0 | 0.00 | 0.00 | 0.00 | 99 | 1013.7 |
| 20260904114841 | 49 | 320 | 0.0 | 0.0 | 0.00 | 0.00 | 0.00 | 99 | 1013.8 |
| 20260904114336 | 50 | 320 | 0.0 | 0.0 | 0.00 | 0.00 | 0.00 | 99 | 1013.5 |
| 20260904113831 | 50 | 320 | 0.0 | 0.0 | 0.00 | 0.00 | 0.00 | 99 | 1013.6 |
| 20260904113330 | 50 | 320 | 0.0 | 0.0 | 0.00 | 0.00 | 0.00 | 99 | 1013.2 |
| 20260904112825 | 50 | 320 | 0.0 | 0.0 | 0.00 | 0.00 | 0.00 | 99 | 1013.5 |
| 20260904112321 | 50 | 319 | 0.0 | 0.0 | 0.00 | 0.00 | 0.00 | 99 | 1013.2 |
| 20260904111816 | 50 | 321 | 0.0 | 0.0 | 0.00 | 0.00 | 0.00 | 99 | 1013.3 |
| 20260904111312 | 50 | 322 | 0.0 | 0.0 | 0.00 | 0.00 | 0.00 | 99 | 1013.4 |
| 20260904110808 | 50 | 322 | 0.0 | 0.0 | 0.00 | 0.00 | 0.00 | 99 | 1013.2 |
| 20260904110306 | 50 | 331 | 0.0 | 0.0 | 0.00 | 0.00 | 0.00 | 99 | 1013.1 |
| 20260904105802 | 50 | 329 | 0.0 | 0.0 | 0.00 | 0.00 | 0.00 | 99 | 1013.2 |
| 20260904105256 | 50 | 276 | 0.0 | 1.0 | 0.00 | 0.00 | 0.00 | 99 | 1013.4 |
| 20260904104751 | 50 | 318 | 0.0 | 0.0 | 0.00 | 0.00 | 0.00 | 99 | 1012.9 |
| 20260904104247 | 50 | 333 | 0.0 | 0.0 | 0.00 | 0.00 | 0.00 | 99 | 1013.0 |
| 20260904103744 | 50 | 325 | 0.0 | 0.0 | 0.00 | 0.00 | 0.00 | 99 | 1013.2 |
| 20260904103238 | 50 | 332 | 0.0 | 0.0 | 0.00 | 0.00 | 0.00 | 99 | 1013.4 |
| 20260904102734 | 50 | 344 | 0.0 | 0.0 | 0.00 | 0.00 | 0.00 | 99 | 1013.3 |
| 20260904102229 | 50 | 3 | 0.0 | 0.0 | 0.00 | 0.00 | 0.00 | 99 | 1013.3 |
| 20260904101725 | 50 | 318 | 0.0 | 0.0 | 0.00 | 0.00 | 0.00 | 99 | 1013.4 |
| 20260904101221 | 50 | 335 | 0.0 | 0.0 | 0.00 | 0.00 | 0.00 | 99 | 1013.2 |
| 20260904100717 | 50 | 327 | 0.0 | 0.0 | 0.00 | 0.00 | 0.00 | 99 | 1013.2 |
| 20260904100213 | 50 | 327 | 0.0 | 0.0 | 0.00 | 0.00 | 0.00 | 99 | 1013.1 |
| 20260904095712 | 50 | 327 | 0.0 | 0.0 | 0.00 | 0.00 | 0.00 | 99 | 1013.2 |
| 20260904095206 | 50 | 332 | 0.0 | 0.0 | 0.00 | 0.00 | 0.00 | 99 | 1013.1 |
| 20260904094702 | 50 | 345 | 0.0 | 0.0 | 0.00 | 0.00 | 0.00 | 99 | 1013.3 |
| 20260904094156 | 50 | 293 | 0.0 | 0.0 | 0.00 | 0.00 | 0.00 | 99 | 1013.3 |
| 20260904093654 | 50 | 63 | 2.0 | 3.0 | 0.00 | 0.00 | 0.00 | 99 | 1013.3 |
| 20260904093153 | 50 | 336 | 0.0 | 0.0 | 0.00 | 0.00 | 0.00 | 99 | 1013.0 |
| 20260904092649 | 49 | 211 | 3.0 | 3.0 | 0.00 | 0.00 | 0.00 | 99 | 1013.0 |
| 20260904092145 | 49 | 338 | 0.0 | 0.0 | 0.00 | 0.00 | 0.00 | 99 | 1013.0 |
| 20260904091641 | 50 | 338 | 0.0 | 0.0 | 0.00 | 0.00 | 0.00 | 99 | 1013.2 |
| 20260904091140 | 50 | 291 | 0.0 | 0.0 | 0.00 | 0.00 | 0.00 | 99 | 1013.3 |
| 20260904090636 | 49 | 330 | 0.0 | 0.0 | 0.00 | 0.00 | 0.00 | 99 | 1013.3 |
| 20260904090131 | 49 | 330 | 0.0 | 0.0 | 0.00 | 0.00 | 0.00 | 99 | 1013.2 |
| 20260904085632 | 49 | 330 | 0.0 | 0.0 | 0.00 | 0.00 | 0.00 | 99 | 1013.1 |
| 20260904085126 | 49 | 330 | 0.0 | 0.0 | 0.00 | 0.00 | 0.00 | 99 | 1013.1 |
| 20260904084621 | 50 | 330 | 0.0 | 0.0 | 0.00 | 0.00 | 0.00 | 99 | 1013.0 |
| 20260904084118 | 50 | 317 | 0.0 | 0.0 | 0.00 | 0.00 | 0.00 | 99 | 1013.2 |
| 20260904083614 | 50 | 289 | 0.0 | 0.0 | 0.00 | 0.00 | 0.00 | 99 | 1012.9 |
| 20260904083109 | 50 | 347 | 0.0 | 0.0 | 0.00 | 0.00 | 0.00 | 99 | 1012.9 |
| 20260904082604 | 50 | 323 | 0.0 | 0.0 | 0.00 | 0.00 | 0.00 | 99 | 1013.0 |
| 20260904082100 | 51 | 322 | 0.0 | 0.0 | 0.00 | 0.00 | 0.00 | 98 | 1013.2 |
| 20260904081555 | 51 | 337 | 0.0 | 0.0 | 0.00 | 0.00 | 0.00 | 98 | 1013.2 |
| 20260904081050 | 51 | 346 | 0.0 | 0.0 | 0.00 | 0.00 | 0.00 | 98 | 1013.1 |
| 20260904080546 | 52 | 338 | 0.0 | 0.0 | 0.00 | 0.00 | 0.00 | 97 | 1013.2 |
| 20260904080042 | 52 | 341 | 0.0 | 0.0 | 0.00 | 0.00 | 0.00 | 97 | 1013.3 |
| 20260904075538 | 52 | 277 | 0.0 | 0.0 | 0.00 | 0.00 | 0.00 | 97 | 1013.0 |
| 20260904075032 | 52 | 349 | 0.0 | 0.0 | 0.00 | 0.00 | 0.00 | 97 | 1013.3 |
| 20260904074531 | 52 | 223 | 2.0 | 2.0 | 0.00 | 0.00 | 0.00 | 99 | 1013.2 |
| 20260904074026 | 51 | 327 | 0.0 | 0.0 | 0.00 | 0.00 | 0.00 | 99 | 1013.3 |
| 20260904073521 | 51 | 20 | 0.0 | 1.0 | 0.00 | 0.00 | 0.00 | 99 | 1012.9 |
| 20260904073018 | 50 | 347 | 0.0 | 0.0 | 0.00 | 0.00 | 0.00 | 99 | 1013.1 |
| 20260904072513 | 51 | 319 | 0.0 | 0.0 | 0.00 | 0.00 | 0.00 | 99 | 1013.0 |
| 20260904072008 | 50 | 308 | 0.0 | 0.0 | 0.00 | 0.00 | 0.00 | 99 | 1013.0 |
| 20260904071503 | 50 | 308 | 0.0 | 0.0 | 0.00 | 0.00 | 0.00 | 99 | 1013.0 |
| 20260904070958 | 50 | 308 | 0.0 | 0.0 | 0.00 | 0.00 | 0.00 | 99 | 1012.7 |
| 20260904070456 | 51 | 308 | 0.0 | 0.0 | 0.00 | 0.00 | 0.00 | 99 | 1012.9 |
| 20260904065951 | 51 | 309 | 0.0 | 0.0 | 0.00 | 0.00 | 0.00 | 99 | 1012.9 |
| 20260904065447 | 51 | 308 | 0.0 | 0.0 | 0.00 | 0.00 | 0.00 | 99 | 1012.9 |
| 20260904064942 | 51 | 309 | 0.0 | 0.0 | 0.00 | 0.00 | 0.00 | 99 | 1012.6 |
| 20260904064439 | 52 | 309 | 0.0 | 0.0 | 0.00 | 0.00 | 0.00 | 99 | 1012.6 |
| 20260904063939 | 52 | 309 | 0.0 | 0.0 | 0.00 | 0.00 | 0.00 | 99 | 1012.7 |
| 20260904063436 | 52 | 309 | 0.0 | 0.0 | 0.00 | 0.00 | 0.00 | 99 | 1012.9 |
| 20260904062930 | 52 | 309 | 0.0 | 0.0 | 0.00 | 0.00 | 0.00 | 98 | 1012.8 |
| 20260904062421 | 52 | 308 | 0.0 | 0.0 | 0.00 | 0.00 | 0.00 | 99 | 1012.7 |
| 20260904061917 | 52 | 316 | 0.0 | 0.0 | 0.00 | 0.00 | 0.00 | 99 | 1012.7 |
| 20260904061413 | 52 | 317 | 0.0 | 0.0 | 0.00 | 0.00 | 0.00 | 99 | 1012.6 |